Simultaneous Nadir Overpasses (SNOs) Predictions

Prediction of SNOs between METOP-B and TERRA Satellite Orbit:

Table of predicted SNOs for the next 14.0 days since TLE Epoch: 9/30/2017
Index Date (METOP-B) Time (METOP-B) Lat,Lon (METOP-B) SZA (METOP-B ) Date (TERRA) Time (TERRA) Lat,Lon (TERRA) SZA (TERRA ) Distance(km) Time Diff (sec)
1 09/30/2017 08:32:01 81.29, 98.62 87.19 09/30/2017 08:32:27 81.29, 98.72 87.22 1.72 26
2 09/30/2017 09:22:41 -81.29, -93.61 92.75 09/30/2017 09:21:54 -81.29, -93.69 92.78 1.66 47
3 10/03/2017 04:06:24 81.29, 165.05 88.30 10/03/2017 04:06:41 81.29, 165.17 88.32 2.00 17
4 10/03/2017 04:57:04 -81.29, -27.17 91.63 10/03/2017 04:56:08 -81.29, -27.22 91.67 1.21 56
5 10/05/2017 23:40:47 81.29,-128.54 89.41 10/05/2017 23:40:55 81.29,-128.45 89.42 1.50 8
6 10/06/2017 00:31:26 -81.30, 39.63 90.48 10/06/2017 00:30:21 -81.31, 39.55 90.52 1.45 65
7 10/08/2017 18:24:29 -81.29, 130.35 89.54 10/08/2017 18:25:42 -81.28, 130.21 89.53 2.56 73
8 10/08/2017 19:15:08 81.29, -61.75 90.54 10/08/2017 19:15:07 81.30, -61.76 90.55 0.60 1
9 10/08/2017 20:05:40 -81.33, 109.16 89.00 10/08/2017 20:04:26 -81.45, 108.95 88.99 14.47 74
10 10/11/2017 13:58:52 -81.29,-163.27 88.47 10/11/2017 13:59:55 -81.29,-163.15 88.42 2.07 63




NCC Satellite Simultaneous Nadir Overpasses (SNOs) Prediction Service
